Location: Bastogne Gables
(35.1554°N, 78.9900°W)
Time: 03:28:39
(UTC+00:00)

OAO 2 Rocket - Pass Details

Date: 29 October 2020
Orbit: 676 x 746 km, 35.0° (Epoch: 26 November)

Event Time Altitude Azimuth Distance (km) Brightness Sun altitude
Rises 23:37:16 0° 269° (W) 3,067 8.5 -15.5°
Reaches altitude 10° 23:39:41 10° 269° (W) 2,139 7.2 -16.0°
Maximum altitude 23:44:42 90° 202° (SSW) 686 3.2 -17.0°
Enters shadow 23:46:57 33° 90° (E) 1,142 3.8 -17.5°
